Regional Weather Roundup
Issued by NWS Little Rock, AR

Home | Current Version | Previous Version | Text Only | Print | Product List | Glossary On
Versions: 1 2 3 4 5 6 7 8 9 10 11 12 13 14 15 16 17 18 19 20 21 22 23 24 25 26 27 28 29 30 31 32 33 34 35 36 37 38 39 40 41 42 43 44 45 46 47 48 49 50
000
ASUS44 KLZK 230305
RWRLZK

WEATHER ROUNDUP FOR ARKANSAS
NATIONAL WEATHER SERVICE LITTLE ROCK AR
900 PM CST WED FEB 22 2017

NOTE: "FAIR" INDICATES FEW OR NO CLOUDS BELOW 12,000 FEET WITH NO
SIGNIFICANT WEATHER AND/OR OBSTRUCTIONS TO VISIBILITY.

ARZ001-003-010-029-230400-
NORTHWEST ARKANSAS

CITY           SKY/WX    TMP DP  RH WIND       PRES   REMARKS
FAYETTEVILLE   CLEAR     53  51  93 CALM      29.76F
FORT SMITH     PTCLDY    62  55  77 E5        29.74S
HARRISON       CLEAR     58  54  86 S5        29.78R
BENTONVILLE    CLEAR     63  48  59 S7        29.76S
ROGERS         CLEAR     61  50  67 S7        29.76S
SILOAM SPGS    CLEAR     63  50  63 S7        29.75S
HIGHFILL       CLEAR     62  50  64 S6        29.75S
SPRINGDALE     CLEAR     63  52  67 SE3       29.77F
$$

ARZ004-005-016-230400-
NORTH CENTRAL ARKANSAS

CITY           SKY/WX    TMP DP  RH WIND       PRES   REMARKS
BATESVILLE     CLEAR     55  52  88 SW5       29.82S
FLIPPIN        CLEAR     59  52  77 S7        29.76S
MTN HOME       CLEAR     56  53  90 S7        29.78R
$$

ARZ040-041-230400-
WEST CENTRAL ARKANSAS

CITY           SKY/WX    TMP DP  RH WIND       PRES   REMARKS
MENA           PTCLDY    63  61  94 SE3       29.80S
MOUNT IDA      PTCLDY    59  55  87 SE5       29.78
$$

ARZ009-017-025-026-028-230400-
NORTHEAST ARKANSAS

CITY           SKY/WX    TMP DP  RH WIND       PRES   REMARKS
CORNING        FAIR      59  59 100 S6        29.79F
JONESBORO      CLEAR     58  55  90 SW3       29.80R
WALNUT RIDGE   CLEAR     57  54  88 S7        29.79S
BLYTHEVILLE    CLEAR     61  58  90 CALM      29.80S
$$

ARZ022-023-033-042-044-230400-
CENTRAL ARKANSAS

CITY           SKY/WX    TMP DP  RH WIND       PRES   REMARKS
LITTLE ROCK    MOCLDY    53  53 100 SE3       29.82F
N LITTLE ROCK    N/A     56  54  93 CALM      29.82F
JACKSONVILLE   CLEAR     52  52 100 CALM      29.81F
SEARCY         CLEAR     54  54 100 SW3       29.84S FOG
HOT SPRINGS    CLEAR     54  53  97 E6        29.82S
RUSSELLVILLE   PTCLDY    58  55  90 SE5       29.79S
CLINTON        CLOUDY    59  55  88 CALM      29.82S
$$

ARZ036-230400-
EAST ARKANSAS

CITY           SKY/WX    TMP DP  RH WIND       PRES   REMARKS
WEST MEMPHIS   CLEAR     65  57  75 S9        29.81R
$$

ARZ050-053-066-070-073-230400-
SOUTHWEST ARKANSAS

CITY           SKY/WX    TMP DP  RH WIND       PRES   REMARKS
ARKADELPHIA    FAIR      54  54 100 CALM      29.82S
CAMDEN         FOG       54  52  94 CALM      29.81F VSB 1/2
TEXARKANA      CLEAR     60  56  86 SE6       29.80S
EL DORADO      CLEAR     54  53  97 CALM      29.82F
DE QUEEN       CLEAR     60  57  89 E3        29.77S
$$

ARZ056-057-069-230400-
SOUTHEAST ARKANSAS

CITY           SKY/WX    TMP DP  RH WIND       PRES   REMARKS
PINE BLUFF     CLEAR     55  54  96 CALM      29.82F
STUTTGART      CLEAR     57  50  77 W5        29.84S
MONTICELLO     CLEAR     57  55  93 CALM      29.83S

$$





USA.gov is the U.S. government's official web portal to all federal, state and local government web resources and services.